Regional Weather Roundup
Issued by NWS

Home | Current Version | Previous Version | Graphics & Text | Print | Product List | Glossary On
Versions: 1 2 3 4 5 6 7 8 9 10 11 12 13 14 15 16 17 18 19 20 21 22 23 24 25 26 27 28 29 30 31 32 33 34 35 36 37 38 39 40 41 42 43 44 45 46 47 48 49 50
000
ASUS43 KOAX 211302
RWRNE

WEATHER ROUNDUP FOR NEBRASKA
NATIONAL WEATHER SERVICE OMAHA NE
700 AM CST TUE FEB 21 2017

NOTES: SATELLITE DATA IS BEING USED TO AUGMENT CLOUD COVER ABOVE
       12000 FEET.
       "FAIR" INDICATES FEW OR NO CLOUDS BELOW 12,000 FEET WITH NO
       SIGNIFICANT WEATHER AND/OR OBSTRUCTIONS TO VISIBILITY.

  * THESE STATIONS DO NOT REPORT WEATHER SUCH AS RAIN...SNOW OR FOG.

NEZ001>004-019>022-054>056-211400-
NEBRASKA PANHANDLE

CITY           SKY/WX    TMP DP  RH WIND       PRES   REMARKS
SCOTTSBLUFF    CLOUDY    28  21  75 CALM      29.92F
ALLIANCE       CLEAR     32  23  69 SW8       29.90F WCI  25
CHADRON        CLEAR     33  26  75 S3        29.86S
KIMBALL        CLEAR     50  29  45 CALM      29.98S
SIDNEY         CLEAR     30  17  58 W7        29.98S WCI  23
$$

NEZ057>060-069>072-079>082-211400-
SOUTHWEST NEBRASKA

CITY           SKY/WX    TMP DP  RH WIND       PRES   REMARKS
NORTH PLATTE   CLOUDY    26  20  77 CALM      29.97S
IMPERIAL       CLOUDY    34  18  52 SW6       29.97S WCI  29
LEXINGTON      CLOUDY    38  23  53 W10       29.97S WCI  32
MCCOOK         CLOUDY    29  20  69 W7        29.99R WCI  22
OGALLALA       CLOUDY    29  21  72 W8        29.96S WCI  21
$$

NEZ005>010-023>029-035>040-094-211400-
NORTH CENTRAL NEBRASKA

CITY           SKY/WX    TMP DP  RH WIND       PRES   REMARKS
VALENTINE      CLEAR     37  22  54 W9        29.84F WCI  30
AINSWORTH      CLEAR     42  24  48 SW13      29.85S
BROKEN BOW     CLEAR     42  23  46 SW3       29.93S
O`NEILL        CLEAR     38  30  73 SW10      29.88F WCI  31
ORD            CLEAR     33  27  78 CALM      29.93S
THEDFORD       CLEAR     42  22  44 SW7       29.91S
$$

NEZ041-046>049-061>064-073>077-083>087-211400-
SOUTH CENTRAL NEBRASKA

CITY           SKY/WX    TMP DP  RH WIND       PRES   REMARKS
GRAND ISLAND   CLEAR     41  34  76 SW10      29.98R
AURORA         CLEAR     36  32  84 SW8       29.99S WCI  30
HASTINGS       CLEAR     38  30  73 SW7       30.00S WCI  33
HEBRON         CLOUDY    28  27  95 CALM      30.03R
HOLDREGE       CLOUDY    37  24  59 SW7       29.98F WCI  31
KEARNEY *      CLEAR     37  25  60 SW13      29.99S WCI  29
YORK           CLEAR     34  32  93 SW9       30.00S WCI  26
$$

NEZ011>018-030>034-042>045-211400-
NORTHEAST NEBRASKA

CITY           SKY/WX    TMP DP  RH WIND       PRES   REMARKS
NORFOLK        CLEAR     40  33  76 S15       29.92F WCI  32
ALBION         CLEAR     40  31  69 S7        29.96R
BLAIR          CLEAR     37  36  95 W5        29.98R WCI  34
FREMONT        CLEAR     32  32 100 CALM      29.99S
TEKAMAH        CLEAR     32  30  92 SE9       29.98R WCI  24
WAYNE          CLEAR     37  33  85 S7        29.93S WCI  32
$$

NEZ050>053-065>068-078-088>093-211400-
SOUTHEAST NEBRASKA

CITY           SKY/WX    TMP DP  RH WIND       PRES   REMARKS
LINCOLN        CLEAR     27  24  89 SE3       30.01R
OMAHA EPPLEY   FOG       34  30  85 SE5       30.00R VSB 1   WCI  30
BEATRICE       CLOUDY    28  27  96 CALM      30.01R
FALLS CITY     CLEAR     35  34  96 W3        29.98S FOG
NEBRASKA CITY  CLEAR     37  37  99 W12       29.99R WCI  30
PLATTSMOUTH    CLEAR     37  33  88 W6        30.00R WCI  32
$$

NEZ044-045-051>053-067-211400-
OMAHA AREA

CITY           SKY/WX    TMP DP  RH WIND       PRES   REMARKS
OMAHA EPPLEY   FOG       34  30  85 SE5       30.00R VSB 1   WCI  30
BLAIR          CLEAR     37  36  95 W5        29.98R WCI  34
FREMONT        CLEAR     32  32 100 CALM      29.99S
MILLARD        CLEAR     34  33  96 CALM      30.00R
OFFUTT AFB     CLEAR     36  34  93 CALM      30.01R
PLATTSMOUTH    CLEAR     37  33  88 W6        30.00R WCI  32
WAHOO          FAIR      28  26  94 CALM      29.99S
$$




USA.gov is the U.S. government's official web portal to all federal, state and local government web resources and services.